IRIDIUM 106

Last updated on Tue Sep 22 2026 00:03:20 GMT+0000 (Coordinated Universal Time)

1 41917U 17003A 26264.37604675 .00000110 00000+0 32065-4 0 9992 2 41917 86.3951 48.3083 0001834 87.6388 272.5018 14.34217222506990
UTC large
Height (km)
Speed (km/s)
/
Latitude / Longitude
Inclination (degrees)
Orbital Period (minutes)
Azimuth
Elevation
Range (km)
Doppler Factor

Next 0 passes for location: London (51.5072 / 0.1276)

No passes found over London.
IRIDIUM 106